Back to catalog

SL-14 DEB

AlivePO
NORAD 45274·DEBRIS·🇷🇺 Russia

Launched Aug 15, 1991 from Plesetsk Cosmodrome

Loading…

Next Passes (next 24 hours)

TLE

FreshSource: Space-Track

Epoch: Sep 14, 2026, 10:59 UTC

1 45274U 91056L   26257.45787936  .00000185  00000-0  44379-3 0  9998
2 45274  82.5337  71.7110 0027317 282.3008  77.5057 13.17790105316489

Track SL-14 DEB in real time with AllMySat

Download on the App Store